Time,TemperatureF,DewpointF,PressureIn,WindDirection,WindDirectionDegrees,WindSpeedMPH,WindSpeedGustMPH,Humidity,HourlyPrecipIn,Conditions,Clouds,dailyrainin,SoftwareType,DateUTC
2013-04-12 00:05:00,47.3,46.8,29.79,SW,225,0.0,-999.0,98,-99.99,,,0.00,Acu-Link.com,2013-04-12 05:05:00,
2013-04-12 00:20:00,47.3,46.8,29.80,WSW,247,0.0,-999.0,98,-99.99,,,0.00,Acu-Link.com,2013-04-12 05:20:00,
2013-04-12 00:35:00,47.1,46.6,29.80,WSW,247,0.0,-999.0,98,-99.99,,,0.00,Acu-Link.com,2013-04-12 05:35:00,
2013-04-12 01:06:00,46.0,45.5,29.79,West,270,0.0,-999.0,98,-99.99,,,0.00,Acu-Link.com,2013-04-12 06:06:00,
2013-04-12 01:21:00,45.7,45.2,29.79,ENE,67,0.0,-999.0,98,-99.99,,,0.00,Acu-Link.com,2013-04-12 06:21:00,
2013-04-12 01:36:00,45.0,44.5,29.80,West,270,0.0,-999.0,98,-99.99,,,0.00,Acu-Link.com,2013-04-12 06:36:00,
2013-04-12 01:52:00,45.0,44.5,29.80,NNE,22,0.0,-999.0,98,-99.99,,,0.00,Acu-Link.com,2013-04-12 06:52:00,
2013-04-12 02:07:00,44.8,44.3,29.79,NNW,337,0.0,-999.0,98,-99.99,,,0.00,Acu-Link.com,2013-04-12 07:07:00,
2013-04-12 02:22:00,44.4,43.9,29.79,West,270,0.0,-999.0,98,-99.99,,,0.00,Acu-Link.com,2013-04-12 07:22:00,
2013-04-12 02:37:00,45.0,44.5,29.78,SW,225,0.0,-999.0,98,-99.99,,,0.00,Acu-Link.com,2013-04-12 07:37:00,
2013-04-12 02:52:00,45.1,44.6,29.78,WNW,292,0.0,-999.0,98,-99.99,,,0.00,Acu-Link.com,2013-04-12 07:52:00,
2013-04-12 03:12:00,45.3,44.8,29.79,ENE,67,0.0,-999.0,98,-99.99,,,0.00,Acu-Link.com,2013-04-12 08:12:00,
2013-04-12 03:27:00,45.1,44.6,29.79,SSE,157,0.0,-999.0,98,-99.99,,,0.00,Acu-Link.com,2013-04-12 08:27:00,
2013-04-12 03:42:00,45.1,44.6,29.79,NNE,22,0.0,-999.0,98,-99.99,,,0.00,Acu-Link.com,2013-04-12 08:42:00,
2013-04-12 03:58:00,44.8,44.3,29.79,SSE,157,0.0,-999.0,98,-99.99,,,0.00,Acu-Link.com,2013-04-12 08:58:00,
2013-04-12 04:13:00,44.4,43.9,29.78,East,90,0.0,-999.0,98,-99.99,,,0.00,Acu-Link.com,2013-04-12 09:13:00,
2013-04-12 04:28:00,44.2,43.7,29.79,NNE,22,0.0,-999.0,98,-99.99,,,0.00,Acu-Link.com,2013-04-12 09:28:00,
2013-04-12 05:00:00,43.9,43.4,29.79,WNW,292,0.0,-999.0,98,-99.99,,,0.00,Acu-Link.com,2013-04-12 10:00:00,
2013-04-12 05:15:00,44.2,43.7,29.79,SE,135,0.0,-999.0,98,-99.99,,,0.00,Acu-Link.com,2013-04-12 10:15:00,
2013-04-12 05:30:00,44.2,43.7,29.79,West,270,0.0,-999.0,98,-99.99,,,0.00,Acu-Link.com,2013-04-12 10:30:00,
2013-04-12 05:45:00,43.9,43.4,29.79,West,270,0.0,-999.0,98,-99.99,,,0.00,Acu-Link.com,2013-04-12 10:45:00,
2013-04-12 06:00:00,43.5,43.0,29.80,NW,315,0.0,-999.0,98,-99.99,,,0.00,Acu-Link.com,2013-04-12 11:00:00,
2013-04-12 06:15:00,43.2,42.7,29.79,West,270,0.0,-999.0,98,-99.99,,,0.00,Acu-Link.com,2013-04-12 11:15:00,
2013-04-12 06:30:00,42.6,42.1,29.80,NNE,22,0.0,-999.0,98,-99.99,,,0.00,Acu-Link.com,2013-04-12 11:30:00,
2013-04-12 06:45:00,42.3,41.8,29.81,West,270,0.0,-999.0,98,-99.99,,,0.00,Acu-Link.com,2013-04-12 11:45:00,
2013-04-12 07:16:00,42.3,41.8,29.82,WNW,292,0.0,-999.0,98,-99.99,,,0.00,Acu-Link.com,2013-04-12 12:16:00,
2013-04-12 07:32:00,43.5,43.0,29.83,West,270,0.0,-999.0,98,-99.99,,,0.00,Acu-Link.com,2013-04-12 12:32:00,
2013-04-12 07:58:00,47.5,47.0,29.84,West,270,0.0,-999.0,98,-99.99,,,0.00,Acu-Link.com,2013-04-12 12:58:00,
2013-04-12 08:30:00,57.4,56.8,29.85,WNW,292,0.0,-999.0,98,-99.99,,,0.00,Acu-Link.com,2013-04-12 13:30:00,
2013-04-12 08:48:00,60.1,59.5,29.86,WSW,247,0.0,-999.0,98,-99.99,,,0.00,Acu-Link.com,2013-04-12 13:48:00,
2013-04-12 09:18:00,67.1,42.6,29.87,ESE,112,0.0,-999.0,41,-99.99,,,0.00,Acu-Link.com,2013-04-12 14:18:00,
2013-04-12 09:33:00,68.0,42.8,29.88,SE,135,0.0,-999.0,40,-99.99,,,0.00,Acu-Link.com,2013-04-12 14:33:00,
2013-04-12 09:48:00,71.2,41.4,29.88,West,270,0.0,-999.0,34,-99.99,,,0.00,Acu-Link.com,2013-04-12 14:48:00,
2013-04-12 10:03:00,71.6,39.4,29.88,ESE,112,2.7,-999.0,31,-99.99,,,0.00,Acu-Link.com,2013-04-12 15:03:00,
2013-04-12 10:18:00,73.9,37.8,29.88,ESE,112,3.2,-999.0,27,-99.99,,,0.00,Acu-Link.com,2013-04-12 15:18:00,
2013-04-12 10:34:00,68.9,38.6,29.88,West,270,2.2,-999.0,33,-99.99,,,0.00,Acu-Link.com,2013-04-12 15:34:00,
2013-04-12 10:49:00,70.7,40.9,29.88,SSW,202,0.0,-999.0,34,-99.99,,,0.00,Acu-Link.com,2013-04-12 15:49:00,
2013-04-12 11:04:00,71.2,40.6,29.88,East,90,4.2,-999.0,33,-99.99,,,0.00,Acu-Link.com,2013-04-12 16:04:00,
2013-04-12 11:19:00,71.6,36.8,29.88,SE,135,5.8,-999.0,28,-99.99,,,0.00,Acu-Link.com,2013-04-12 16:19:00,
2013-04-12 11:34:00,72.3,37.4,29.88,ESE,112,2.2,-999.0,28,-99.99,,,0.00,Acu-Link.com,2013-04-12 16:34:00,
2013-04-12 11:49:00,74.3,40.0,29.88,ESE,112,4.2,-999.0,29,-99.99,,,0.00,Acu-Link.com,2013-04-12 16:49:00,
2013-04-12 12:04:00,73.9,37.8,29.87,South,180,4.2,-999.0,27,-99.99,,,0.00,Acu-Link.com,2013-04-12 17:04:00,
2013-04-12 12:19:00,74.8,34.5,29.87,NW,315,4.2,-999.0,23,-99.99,,,0.00,Acu-Link.com,2013-04-12 17:19:00,
2013-04-12 12:34:00,74.8,34.5,29.87,SSE,157,5.3,-999.0,23,-99.99,,,0.00,Acu-Link.com,2013-04-12 17:34:00,
2013-04-12 12:50:00,75.9,33.2,29.86,ESE,112,2.2,-999.0,21,-99.99,,,0.00,Acu-Link.com,2013-04-12 17:50:00,
2013-04-12 14:36:00,79.2,-29.3,29.81,West,270,0.0,-999.0,1,-99.99,,,0.00,Acu-Link.com,2013-04-12 19:36:00,
2013-04-12 14:52:00,81.5,-27.9,29.80,ESE,112,3.2,-999.0,1,-99.99,,,0.00,Acu-Link.com,2013-04-12 19:52:00,
2013-04-12 15:07:00,84.0,-26.5,29.79,ESE,112,4.2,-999.0,1,-99.99,,,0.00,Acu-Link.com,2013-04-12 20:07:00,
2013-04-12 15:22:00,84.6,-26.1,29.78,SE,135,6.3,-999.0,1,-99.99,,,0.00,Acu-Link.com,2013-04-12 20:22:00,
2013-04-12 15:37:00,85.8,-25.4,29.78,SE,135,5.3,-999.0,1,-99.99,,,0.00,Acu-Link.com,2013-04-12 20:37:00,
2013-04-12 15:55:00,84.2,-26.3,29.76,SSE,157,3.7,-999.0,1,-99.99,,,0.00,Acu-Link.com,2013-04-12 20:55:00,
2013-04-12 16:10:00,81.0,-28.2,29.76,ESE,112,5.8,-999.0,1,-99.99,,,0.00,Acu-Link.com,2013-04-12 21:10:00,
2013-04-12 16:25:00,80.4,-28.6,29.75,SSE,157,2.2,-999.0,1,-99.99,,,0.00,Acu-Link.com,2013-04-12 21:25:00,
2013-04-12 16:40:00,80.2,-28.7,29.75,ESE,112,5.3,-999.0,1,-99.99,,,0.00,Acu-Link.com,2013-04-12 21:40:00,
2013-04-12 16:55:00,80.4,-28.6,29.74,ESE,112,3.2,-999.0,1,-99.99,,,0.00,Acu-Link.com,2013-04-12 21:55:00,
2013-04-12 17:10:00,79.9,-28.9,29.74,ESE,112,3.2,-999.0,1,-99.99,,,0.00,Acu-Link.com,2013-04-12 22:10:00,
2013-04-12 17:26:00,80.2,-28.7,29.73,ESE,112,7.8,-999.0,1,-99.99,,,0.00,Acu-Link.com,2013-04-12 22:26:00,
2013-04-12 17:41:00,79.3,-29.3,29.73,South,180,2.7,-999.0,1,-99.99,,,0.00,Acu-Link.com,2013-04-12 22:41:00,
2013-04-12 18:26:00,77.7,-30.2,29.73,ESE,112,4.7,-999.0,1,-99.99,,,0.00,Acu-Link.com,2013-04-12 23:26:00,
2013-04-12 18:56:00,76.5,-30.9,29.73,ESE,112,5.3,-999.0,1,-99.99,,,0.00,Acu-Link.com,2013-04-12 23:56:00,
2013-04-12 19:11:00,75.6,-31.5,29.73,ESE,112,7.3,-999.0,1,-99.99,,,0.00,Acu-Link.com,2013-04-13 00:11:00,
2013-04-12 19:42:00,72.9,32.9,29.74,ESE,112,3.2,-999.0,23,-99.99,,,0.00,Acu-Link.com,2013-04-13 00:42:00,
2013-04-12 19:57:00,71.1,33.5,29.74,ESE,112,2.7,-999.0,25,-99.99,,,0.00,Acu-Link.com,2013-04-13 00:57:00,
2013-04-12 20:12:00,69.4,34.0,29.74,ESE,112,2.7,-999.0,27,-99.99,,,0.00,Acu-Link.com,2013-04-13 01:12:00,
2013-04-12 20:27:00,68.2,33.8,29.75,ESE,112,2.7,-999.0,28,-99.99,,,0.00,Acu-Link.com,2013-04-13 01:27:00,
2013-04-12 20:42:00,67.1,36.3,29.75,ESE,112,2.7,-999.0,32,-99.99,,,0.00,Acu-Link.com,2013-04-13 01:42:00,
2013-04-12 20:57:00,66.2,37.0,29.76,ESE,112,2.7,-999.0,34,-99.99,,,0.00,Acu-Link.com,2013-04-13 01:57:00,
2013-04-12 21:12:00,64.9,37.3,29.76,ESE,112,0.0,-999.0,36,-99.99,,,0.00,Acu-Link.com,2013-04-13 02:12:00,
2013-04-12 21:27:00,63.9,39.1,29.77,ESE,112,0.0,-999.0,40,-99.99,,,0.00,Acu-Link.com,2013-04-13 02:27:00,
2013-04-12 21:42:00,63.5,39.4,29.78,ESE,112,3.7,-999.0,41,-99.99,,,0.00,Acu-Link.com,2013-04-13 02:42:00,
2013-04-12 21:58:00,63.1,40.2,29.78,ESE,112,3.2,-999.0,43,-99.99,,,0.00,Acu-Link.com,2013-04-13 02:58:00,
2013-04-12 22:13:00,62.2,40.0,29.79,East,90,3.2,-999.0,44,-99.99,,,0.00,Acu-Link.com,2013-04-13 03:13:00,
2013-04-12 22:28:00,61.7,40.7,29.80,ESE,112,3.2,-999.0,46,-99.99,,,0.00,Acu-Link.com,2013-04-13 03:28:00,
2013-04-12 22:43:00,61.3,40.9,29.81,ESE,112,3.2,-999.0,47,-99.99,,,0.00,Acu-Link.com,2013-04-13 03:43:00,
2013-04-12 22:58:00,60.8,41.0,29.81,ESE,112,0.0,-999.0,48,-99.99,,,0.00,Acu-Link.com,2013-04-13 03:58:00,
2013-04-12 23:13:00,60.6,41.9,29.81,ESE,112,0.0,-999.0,50,-99.99,,,0.00,Acu-Link.com,2013-04-13 04:13:00,
2013-04-12 23:28:00,60.3,42.6,29.81,East,90,0.0,-999.0,52,-99.99,,,0.00,Acu-Link.com,2013-04-13 04:28:00,
2013-04-12 23:43:00,59.5,45.2,29.82,ESE,112,0.0,-999.0,59,-99.99,,,0.00,Acu-Link.com,2013-04-13 04:43:00,
2013-04-12 23:58:00,59.2,49.4,29.82,ESE,112,0.0,-999.0,70,-99.99,,,0.00,Acu-Link.com,2013-04-13 04:58:00,